| time (UTC) | temp F | wind direction | speed knots | gust knots | rain 1hr in | rain 24hr in | rain mn in | humidity % | barometer mb |
| 20260504151045 | 69 | 139 | 2.6 | 2.6 | 0.00 | 0.00 | 0.00 | 33 | 1014.2 |
| 20260504150542 | 68 | 146 | 0.9 | 1.7 | 0.00 | 0.00 | 0.00 | 34 | 1014.3 |
| 20260504141008 | 66 | 207 | 2.6 | 2.6 | 0.00 | 0.00 | 0.00 | 37 | 1014.6 |
| 20260504140505 | 64 | 258 | 1.7 | 1.7 | 0.00 | 0.00 | 0.00 | 37 | 1014.5 |
| 20260504130429 | 59 | 261 | 1.7 | 3.5 | 0.00 | 0.00 | 0.00 | 46 | 1015.3 |
| 20260504110316 | 54 | 237 | 1.7 | 1.7 | 0.00 | 0.00 | 0.00 | 53 | 1015.5 |
| 20260504100234 | 54 | 222 | 1.7 | 1.7 | 0.00 | 0.00 | 0.00 | 53 | 1015.3 |
| 20260504081628 | 54 | 260 | 1.7 | 1.7 | 0.00 | 0.00 | 0.00 | 54 | 1016.1 |
| 20260504081123 | 54 | 254 | 0.9 | 0.9 | 0.00 | 0.00 | 0.00 | 54 | 1016.0 |
| 20260504080620 | 54 | 264 | 1.7 | 1.7 | 0.00 | 0.00 | 0.00 | 53 | 1015.6 |
| 20260504080117 | 54 | 230 | 0.9 | 1.7 | 0.00 | 0.00 | 0.00 | 54 | 1015.8 |
| 20260504050433 | 52 | 259 | 0.0 | 0.0 | 0.00 | 0.00 | 0.00 | 56 | 1016.2 |
| 20260504045930 | 52 | 258 | 0.0 | 0.0 | 0.00 | 0.00 | 0.00 | 55 | 1016.0 |
| 20260504045426 | 53 | 256 | 0.0 | 0.9 | 0.00 | 0.00 | 0.00 | 54 | 1016.2 |
| 20260504044922 | 54 | 257 | 0.0 | 0.9 | 0.00 | 0.00 | 0.00 | 51 | 1016.1 |
| 20260504044420 | 55 | 243 | 0.0 | 0.0 | 0.00 | 0.00 | 0.00 | 49 | 1016.2 |
| 20260504043917 | 55 | 252 | 0.9 | 1.7 | 0.00 | 0.00 | 0.00 | 49 | 1016.2 |
| 20260504043414 | 55 | 236 | 0.9 | 0.9 | 0.00 | 0.00 | 0.00 | 48 | 1016.1 |
| 20260504042911 | 55 | 236 | 0.9 | 0.9 | 0.00 | 0.00 | 0.00 | 48 | 1016.3 |
| 20260504042408 | 55 | 239 | 0.9 | 1.7 | 0.00 | 0.00 | 0.00 | 47 | 1016.0 |
| 20260504041904 | 55 | 224 | 0.9 | 0.9 | 0.00 | 0.00 | 0.00 | 46 | 1016.1 |
| 20260504041400 | 55 | 246 | 0.0 | 0.0 | 0.00 | 0.00 | 0.00 | 46 | 1016.0 |
| 20260504040856 | 55 | 248 | 0.9 | 1.7 | 0.00 | 0.00 | 0.00 | 45 | 1016.0 |
| 20260504040354 | 55 | 252 | 0.0 | 0.0 | 0.00 | 0.00 | 0.00 | 45 | 1016.0 |
| 20260504035850 | 55 | 243 | 0.9 | 1.7 | 0.00 | 0.00 | 0.00 | 45 | 1016.0 |
| 20260504035348 | 55 | 234 | 0.0 | 0.9 | 0.00 | 0.00 | 0.00 | 45 | 1016.3 |
| 20260504034844 | 55 | 254 | 0.0 | 0.0 | 0.00 | 0.00 | 0.00 | 44 | 1016.2 |
| 20260504034342 | 55 | 242 | 0.0 | 0.0 | 0.00 | 0.00 | 0.00 | 43 | 1016.4 |
| 20260504033838 | 55 | 216 | 0.9 | 0.9 | 0.00 | 0.00 | 0.00 | 43 | 1016.1 |
| 20260504033337 | 56 | 243 | 0.0 | 0.9 | 0.00 | 0.00 | 0.00 | 42 | 1016.1 |
| 20260504032833 | 55 | 249 | 0.0 | 0.9 | 0.00 | 0.00 | 0.00 | 42 | 1015.9 |
| 20260504032330 | 55 | 244 | 1.7 | 2.6 | 0.00 | 0.00 | 0.00 | 42 | 1016.1 |
| 20260504031827 | 55 | 239 | 0.0 | 0.0 | 0.00 | 0.00 | 0.00 | 44 | 1015.9 |
| 20260504031324 | 54 | 218 | 0.9 | 0.9 | 0.00 | 0.00 | 0.00 | 44 | 1015.9 |
| 20260504030820 | 53 | 254 | 0.9 | 0.9 | 0.00 | 0.00 | 0.00 | 46 | 1016.0 |
| 20260504030318 | 51 | 253 | 0.0 | 0.9 | 0.00 | 0.00 | 0.00 | 53 | 1015.6 |
| 20260504025814 | 51 | 255 | 0.0 | 0.9 | 0.00 | 0.00 | 0.00 | 56 | 1015.8 |
| 20260504025311 | 50 | 256 | 0.0 | 0.0 | 0.00 | 0.00 | 0.00 | 57 | 1015.8 |
| 20260504024808 | 51 | 255 | 0.0 | 0.0 | 0.00 | 0.00 | 0.00 | 57 | 1015.5 |
| 20260504024304 | 51 | 257 | 0.0 | 0.0 | 0.00 | 0.00 | 0.00 | 56 | 1015.8 |
| 20260504023801 | 51 | 257 | 0.0 | 0.0 | 0.00 | 0.00 | 0.00 | 56 | 1015.6 |
| 20260504023257 | 51 | 259 | 0.0 | 0.0 | 0.00 | 0.00 | 0.00 | 56 | 1015.4 |
| 20260504022753 | 51 | 257 | 0.0 | 0.0 | 0.00 | 0.00 | 0.00 | 55 | 1015.8 |
| 20260504022250 | 52 | 257 | 0.0 | 0.0 | 0.00 | 0.00 | 0.00 | 53 | 1015.4 |
| 20260504021747 | 52 | 255 | 0.0 | 0.0 | 0.00 | 0.00 | 0.00 | 53 | 1015.5 |
| 20260504021244 | 52 | 257 | 0.0 | 0.0 | 0.00 | 0.00 | 0.00 | 52 | 1015.5 |
| 20260504020741 | 52 | 257 | 0.0 | 0.0 | 0.00 | 0.00 | 0.00 | 51 | 1015.4 |
| 20260504020237 | 53 | 257 | 0.0 | 0.0 | 0.00 | 0.00 | 0.00 | 51 | 1015.3 |
| 20260504015734 | 53 | 256 | 0.0 | 0.0 | 0.00 | 0.00 | 0.00 | 50 | 1015.3 |
| 20260504015230 | 53 | 255 | 0.0 | 0.0 | 0.00 | 0.00 | 0.00 | 50 | 1015.3 |
| 20260504014726 | 53 | 254 | 0.0 | 0.0 | 0.00 | 0.00 | 0.00 | 50 | 1015.3 |
| 20260504014223 | 53 | 257 | 0.0 | 0.0 | 0.00 | 0.00 | 0.00 | 49 | 1015.2 |
| 20260504013721 | 53 | 261 | 0.0 | 0.0 | 0.00 | 0.00 | 0.00 | 48 | 1015.2 |
| 20260504013218 | 54 | 255 | 0.0 | 0.0 | 0.00 | 0.00 | 0.00 | 48 | 1015.2 |
| 20260504012714 | 54 | 257 | 0.0 | 0.0 | 0.00 | 0.00 | 0.00 | 47 | 1015.1 |
| 20260504012212 | 54 | 259 | 0.0 | 0.0 | 0.00 | 0.00 | 0.00 | 45 | 1015.2 |
| 20260504011709 | 55 | 257 | 0.0 | 0.0 | 0.00 | 0.00 | 0.00 | 45 | 1015.2 |
| 20260504011206 | 55 | 256 | 0.0 | 0.0 | 0.00 | 0.00 | 0.00 | 44 | 1015.1 |
| 20260504010701 | 55 | 257 | 0.0 | 0.0 | 0.00 | 0.00 | 0.00 | 43 | 1015.2 |
| 20260504010157 | 56 | 256 | 0.0 | 0.0 | 0.00 | 0.00 | 0.00 | 42 | 1015.1 |
| 20260504005654 | 57 | 255 | 0.0 | 0.0 | 0.00 | 0.00 | 0.00 | 41 | 1015.0 |
| 20260504005151 | 57 | 259 | 0.0 | 0.0 | 0.00 | 0.00 | 0.00 | 39 | 1015.0 |
| 20260504004649 | 58 | 257 | 0.0 | 0.0 | 0.00 | 0.00 | 0.00 | 37 | 1015.0 |
| 20260504004146 | 59 | 257 | 0.0 | 0.0 | 0.00 | 0.00 | 0.00 | 35 | 1014.8 |
| 20260504003642 | 59 | 252 | 0.9 | 1.7 | 0.00 | 0.00 | 0.00 | 32 | 1015.0 |
| 20260504003139 | 60 | 245 | 0.9 | 0.9 | 0.00 | 0.00 | 0.00 | 32 | 1015.0 |
| 20260504002636 | 60 | 250 | 0.0 | 0.0 | 0.00 | 0.00 | 0.00 | 31 | 1014.8 |
| 20260504002133 | 60 | 252 | 0.9 | 0.9 | 0.00 | 0.00 | 0.00 | 31 | 1014.9 |
| 20260504001631 | 60 | 253 | 0.9 | 0.9 | 0.00 | 0.00 | 0.00 | 31 | 1014.8 |
| 20260504001126 | 60 | 249 | 0.0 | 0.9 | 0.00 | 0.00 | 0.00 | 31 | 1014.7 |
| 20260504000619 | 60 | 253 | 0.0 | 0.0 | 0.00 | 0.00 | 0.00 | 30 | 1014.6 |
| 20260504000116 | 61 | 249 | 0.9 | 0.9 | 0.00 | 0.00 | 0.00 | 30 | 1014.5 |
| 20260503235614 | 61 | 265 | 1.7 | 2.6 | 0.00 | 0.00 | 0.00 | 29 | 1014.6 |
| 20260503235111 | 62 | 260 | 0.9 | 0.9 | 0.00 | 0.00 | 0.00 | 29 | 1014.6 |
| 20260503234609 | 62 | 254 | 0.0 | 0.9 | 0.00 | 0.00 | 0.00 | 28 | 1014.4 |
| 20260503234106 | 63 | 267 | 0.0 | 0.9 | 0.00 | 0.00 | 0.00 | 27 | 1014.4 |
| 20260503233603 | 63 | 276 | 0.0 | 0.9 | 0.00 | 0.00 | 0.00 | 27 | 1014.3 |
| 20260503233058 | 64 | 254 | 0.9 | 0.9 | 0.00 | 0.00 | 0.00 | 27 | 1014.3 |
| 20260503232555 | 64 | 251 | 0.9 | 0.9 | 0.00 | 0.00 | 0.00 | 26 | 1014.3 |
| 20260503232053 | 64 | 259 | 0.9 | 0.9 | 0.00 | 0.00 | 0.00 | 26 | 1014.2 |
| 20260503231551 | 64 | 256 | 0.0 | 0.0 | 0.00 | 0.00 | 0.00 | 26 | 1014.3 |
| 20260503231047 | 65 | 257 | 1.7 | 2.6 | 0.00 | 0.00 | 0.00 | 26 | 1014.2 |
| 20260503230544 | 64 | 252 | 0.0 | 0.0 | 0.00 | 0.00 | 0.00 | 26 | 1014.1 |
| 20260503230041 | 64 | 244 | 0.9 | 0.9 | 0.00 | 0.00 | 0.00 | 26 | 1014.1 |
| 20260503225538 | 64 | 253 | 2.6 | 3.5 | 0.00 | 0.00 | 0.00 | 25 | 1014.3 |
| 20260503225033 | 64 | 272 | 4.3 | 5.2 | 0.00 | 0.00 | 0.00 | 25 | 1014.4 |
| 20260503224531 | 64 | 256 | 0.0 | 0.9 | 0.00 | 0.00 | 0.00 | 25 | 1014.3 |
| 20260503224029 | 64 | 274 | 3.5 | 5.2 | 0.00 | 0.00 | 0.00 | 25 | 1014.2 |
| 20260503223527 | 64 | 261 | 1.7 | 2.6 | 0.00 | 0.00 | 0.00 | 25 | 1014.2 |
| 20260503223022 | 64 | 252 | 2.6 | 2.6 | 0.00 | 0.00 | 0.00 | 25 | 1014.3 |
| 20260503222520 | 65 | 260 | 0.9 | 1.7 | 0.00 | 0.00 | 0.00 | 25 | 1014.4 |
| 20260503222018 | 65 | 262 | 0.9 | 0.9 | 0.00 | 0.00 | 0.00 | 24 | 1014.4 |
| 20260503221516 | 65 | 252 | 1.7 | 1.7 | 0.00 | 0.00 | 0.00 | 24 | 1014.3 |
| 20260503221013 | 64 | 243 | 3.5 | 3.5 | 0.00 | 0.00 | 0.00 | 25 | 1014.3 |
| 20260503220509 | 64 | 271 | 4.3 | 5.2 | 0.00 | 0.00 | 0.00 | 25 | 1014.3 |
| 20260503220006 | 65 | 270 | 2.6 | 2.6 | 0.00 | 0.00 | 0.00 | 25 | 1014.3 |
| 20260503215503 | 64 | 269 | 1.7 | 1.7 | 0.00 | 0.00 | 0.00 | 25 | 1014.3 |
| 20260503215000 | 63 | 254 | 2.6 | 2.6 | 0.00 | 0.00 | 0.00 | 25 | 1014.5 |
| 20260503214459 | 64 | 246 | 6.1 | 7.0 | 0.00 | 0.00 | 0.00 | 25 | 1014.6 |
| 20260503213955 | 64 | 333 | 3.5 | 5.2 | 0.00 | 0.00 | 0.00 | 25 | 1014.4 |
| 20260503213454 | 64 | 204 | 6.1 | 7.0 | 0.00 | 0.00 | 0.00 | 25 | 1014.6 |
| 20260503212949 | 64 | 221 | 1.7 | 1.7 | 0.00 | 0.00 | 0.00 | 25 | 1014.6 |
| 20260503212447 | 63 | 285 | 5.2 | 8.7 | 0.00 | 0.00 | 0.00 | 26 | 1014.7 |
| 20260503211944 | 63 | 256 | 4.3 | 7.0 | 0.00 | 0.00 | 0.00 | 25 | 1014.5 |
| 20260503211441 | 64 | 243 | 4.3 | 5.2 | 0.00 | 0.00 | 0.00 | 25 | 1014.5 |
| 20260503210937 | 63 | 283 | 0.0 | 0.9 | 0.00 | 0.00 | 0.00 | 26 | 1014.5 |
| 20260503210433 | 63 | 251 | 2.6 | 7.0 | 0.00 | 0.00 | 0.00 | 26 | 1014.6 |
| 20260503205928 | 64 | 282 | 8.7 | 9.6 | 0.00 | 0.00 | 0.00 | 25 | 1014.7 |
| 20260503205426 | 64 | 264 | 5.2 | 6.1 | 0.00 | 0.00 | 0.00 | 26 | 1014.7 |
| 20260503204922 | 64 | 249 | 2.6 | 2.6 | 0.00 | 0.00 | 0.00 | 25 | 1014.8 |
| 20260503204419 | 63 | 252 | 0.9 | 2.6 | 0.00 | 0.00 | 0.00 | 26 | 1014.6 |
| 20260503203916 | 63 | 299 | 6.1 | 7.0 | 0.00 | 0.00 | 0.00 | 26 | 1014.6 |
| 20260503203414 | 63 | 252 | 5.2 | 8.7 | 0.00 | 0.00 | 0.00 | 26 | 1014.8 |
| 20260503202910 | 64 | 271 | 1.7 | 2.6 | 0.00 | 0.00 | 0.00 | 26 | 1014.6 |
| 20260503202409 | 63 | 261 | 4.3 | 6.1 | 0.00 | 0.00 | 0.00 | 26 | 1014.8 |
| 20260503201907 | 63 | 290 | 7.0 | 9.6 | 0.00 | 0.00 | 0.00 | 26 | 1014.9 |
| 20260503201403 | 63 | 259 | 0.9 | 1.7 | 0.00 | 0.00 | 0.00 | 26 | 1014.9 |
| 20260503200901 | 63 | 236 | 5.2 | 7.0 | 0.00 | 0.00 | 0.00 | 27 | 1015.2 |
| 20260503200356 | 64 | 300 | 7.0 | 11.3 | 0.00 | 0.00 | 0.00 | 26 | 1015.4 |
| 20260503195854 | 64 | 271 | 5.2 | 7.0 | 0.00 | 0.00 | 0.00 | 27 | 1015.2 |
| 20260503195350 | 64 | 224 | 2.6 | 5.2 | 0.00 | 0.00 | 0.00 | 26 | 1015.2 |
| 20260503194848 | 62 | 10 | 2.6 | 3.5 | 0.00 | 0.00 | 0.00 | 28 | 1015.2 |
| 20260503194343 | 62 | 266 | 5.2 | 7.0 | 0.00 | 0.00 | 0.00 | 28 | 1015.2 |
| 20260503193840 | 62 | 273 | 6.1 | 8.7 | 0.00 | 0.00 | 0.00 | 28 | 1015.5 |
| 20260503193336 | 63 | 268 | 9.6 | 14.8 | 0.00 | 0.00 | 0.00 | 28 | 1015.4 |
| 20260503192832 | 61 | 246 | 0.9 | 0.9 | 0.00 | 0.00 | 0.00 | 29 | 1015.8 |
| 20260503192328 | 61 | 252 | 7.0 | 8.7 | 0.00 | 0.00 | 0.00 | 29 | 1015.8 |
| 20260503191824 | 62 | 259 | 4.3 | 7.0 | 0.00 | 0.00 | 0.00 | 27 | 1015.9 |
| 20260503191321 | 62 | 268 | 4.3 | 7.8 | 0.00 | 0.00 | 0.00 | 29 | 1015.8 |
| 20260503190818 | 60 | 235 | 5.2 | 7.8 | 0.00 | 0.00 | 0.00 | 30 | 1016.0 |
| 20260503190315 | 61 | 233 | 7.0 | 11.3 | 0.00 | 0.00 | 0.00 | 30 | 1015.9 |
| 20260503185812 | 60 | 245 | 3.5 | 3.5 | 0.00 | 0.00 | 0.00 | 31 | 1016.1 |
| 20260503185308 | 62 | 277 | 7.8 | 9.6 | 0.00 | 0.00 | 0.00 | 29 | 1016.2 |
| 20260503184807 | 62 | 261 | 5.2 | 11.3 | 0.00 | 0.00 | 0.00 | 29 | 1016.2 |
| 20260503184304 | 60 | 333 | 3.5 | 6.1 | 0.00 | 0.00 | 0.00 | 31 | 1016.2 |
| 20260503183759 | 58 | 258 | 2.6 | 2.6 | 0.00 | 0.00 | 0.00 | 32 | 1016.4 |
| 20260503183257 | 59 | 308 | 8.7 | 11.3 | 0.00 | 0.00 | 0.00 | 30 | 1016.5 |
| 20260503182755 | 59 | 278 | 8.7 | 8.7 | 0.00 | 0.00 | 0.00 | 30 | 1016.4 |
| 20260503182254 | 60 | 294 | 7.0 | 8.7 | 0.00 | 0.00 | 0.00 | 30 | 1016.4 |
| 20260503181750 | 59 | 258 | 1.7 | 1.7 | 0.00 | 0.00 | 0.00 | 30 | 1016.2 |
| 20260503181247 | 57 | 257 | 0.9 | 1.7 | 0.00 | 0.00 | 0.00 | 32 | 1016.5 |
| 20260503180743 | 58 | 286 | 3.5 | 5.2 | 0.00 | 0.00 | 0.00 | 32 | 1016.5 |
| 20260503180242 | 58 | 249 | 1.7 | 2.6 | 0.00 | 0.00 | 0.00 | 32 | 1016.6 |
| 20260503175738 | 59 | 243 | 6.1 | 7.8 | 0.00 | 0.00 | 0.00 | 31 | 1016.8 |
| 20260503175236 | 60 | 283 | 6.1 | 9.6 | 0.00 | 0.00 | 0.00 | 30 | 1016.6 |
| 20260503174732 | 59 | 250 | 2.6 | 5.2 | 0.00 | 0.00 | 0.00 | 31 | 1016.8 |
| 20260503174230 | 58 | 302 | 4.3 | 7.0 | 0.00 | 0.00 | 0.00 | 32 | 1016.6 |
| 20260503173730 | 59 | 235 | 7.8 | 9.6 | 0.00 | 0.00 | 0.00 | 30 | 1016.8 |
| 20260503173226 | 59 | 63 | 4.3 | 7.8 | 0.00 | 0.00 | 0.00 | 31 | 1016.9 |
| 20260503172723 | 60 | 268 | 4.3 | 6.1 | 0.00 | 0.00 | 0.00 | 29 | 1017.0 |
| 20260503172220 | 60 | 244 | 1.7 | 3.5 | 0.00 | 0.00 | 0.00 | 30 | 1016.9 |
| 20260503171717 | 57 | 25 | 2.6 | 3.5 | 0.00 | 0.00 | 0.00 | 31 | 1016.9 |
| 20260503171214 | 57 | 314 | 10.4 | 15.6 | 0.00 | 0.00 | 0.00 | 32 | 1016.9 |
| 20260503170711 | 57 | 247 | 9.6 | 13.0 | 0.00 | 0.00 | 0.00 | 31 | 1016.9 |
| 20260503170208 | 58 | 274 | 8.7 | 13.0 | 0.00 | 0.00 | 0.00 | 31 | 1017.0 |
| 20260503160130 | 57 | 246 | 2.6 | 2.6 | 0.00 | 0.00 | 0.00 | 31 | 1017.4 |